This is the latest recevied weather packets stored in our database for station/object SQ7RAF-15. If no packets are shown the sender has not sent any weather packets the latest 10 day(s).
| Time | Temp. | Humidity | Pressure | Rain* | Wind** | Luminosity | Snow |
|---|---|---|---|---|---|---|---|
| 1777815633 | 27.22° C | 27% | 1015 hPa | 0 mm | - | 251 W/m² | - |
| 1777815337 | 26.67° C | 28% | 1015.1 hPa | 0 mm | - | 404 W/m² | - |
| 1777815043 | 26.67° C | 27% | 1015.1 hPa | 0 mm | - | 361 W/m² | - |
| 1777814733 | 26.67° C | 28% | 1015.3 hPa | 0 mm | - | 405 W/m² | - |
| 1777814441 | 26.67° C | 27% | 1015.2 hPa | 0 mm | - | 483 W/m² | - |
| 1777814123 | 26.67° C | 27% | 1015.3 hPa | 0 mm | - | 466 W/m² | - |
| 1777813833 | 27.22° C | 27% | 1015.5 hPa | 0 mm | - | 472 W/m² | - |
| 1777813545 | 26.67° C | 27% | 1015.4 hPa | 0 mm | - | 500 W/m² | - |
| 1777813225 | 26.67° C | 27% | 1015.5 hPa | 0 mm | - | 506 W/m² | - |
| 1777812937 | 26.67° C | 27% | 1015.6 hPa | 0 mm | - | 532 W/m² | - |
| 1777812617 | 26.67° C | 27% | 1015.6 hPa | 0 mm | - | 513 W/m² | - |
| 1777812329 | 26.67° C | 27% | 1015.7 hPa | 0 mm | - | 512 W/m² | - |
| 1777812041 | 26.67° C | 27% | 1015.7 hPa | 0 mm | - | 522 W/m² | - |
| 1777811721 | 26.67° C | 27% | 1015.7 hPa | 0 mm | - | 523 W/m² | - |
| 1777811433 | 26.67° C | 27% | 1015.7 hPa | 0 mm | - | 510 W/m² | - |
| 1777811131 | 26.67° C | 27% | 1015.8 hPa | 0 mm | - | 515 W/m² | - |
| 1777810841 | 27.22° C | 27% | 1015.8 hPa | 0 mm | - | 537 W/m² | - |
| 1777810522 | 26.67° C | 28% | 1015.8 hPa | 0 mm | - | 551 W/m² | - |
| 1777810233 | 26.11° C | 28% | 1015.8 hPa | 0 mm | - | 589 W/m² | - |
| 1777809946 | 26.67° C | 29% | 1015.9 hPa | 0 mm | - | 594 W/m² | - |
| 1777809626 | 26.67° C | 27% | 1016 hPa | 0 mm | - | 599 W/m² | - |
| 1777809321 | 25.56° C | 28% | 1016.1 hPa | 0 mm | - | 588 W/m² | - |
| 1777809017 | 26.11° C | 28% | 1016.1 hPa | 0 mm | - | 599 W/m² | - |
| 1777808745 | 26.11° C | 26% | 1016.1 hPa | 0 mm | - | 614 W/m² | - |
| 1777808425 | 26.11° C | 27% | 1016.1 hPa | 0 mm | - | 614 W/m² | - |
* Rain latest hour (hover to see other rain measurements)
** Current wind speed in m/s (hover to see current wind gust speed)